Regional Weather Roundup
Issued by NWS

Home | Current Version | Previous Version | Graphics & Text | Print | Product List | Glossary On
Versions: 1 2 3 4 5 6 7 8 9 10 11 12 13 14 15 16 17 18 19 20 21 22 23 24 25 26 27 28 29 30 31 32 33 34 35 36 37 38 39 40 41 42 43 44 45 46 47 48 49 50
000
ASUS45 KABQ 191710
RWRNM
NEW MEXICO REGIONAL WEATHER ROUNDUP
NATIONAL WEATHER SERVICE ALBUQUERQUE NM
1100 AM MDT SAT AUG 19 2017

NOTE: "FAIR" MEANS FEW OR NO CLOUDS BELOW 12,000 FEET AGL WITH NO
       SIGNIFICANT WEATHER OR OBSTRUCTIONS TO VISION.

      THIS PRODUCT IS RELEASED AS TWO VERSIONS.  ONE VERSION NEAR
      THE TOP OF THE HOUR CONTAINING PRELIMINARY DATA FROM ALBUQUERQUE
      AND OTHER STATIONS.  A FINAL VERSION WITH ADDITIONAL DATA IS
      ISSUED ABOUT 10 MINUTES AFTER THE HOUR.

NMZ501-503-504-510>518-191800-
NORTHWEST PLATEAU/NORTHCENTRAL MOUNTAINS

CITY           SKY/WX    TMP DP  RH WIND       PRES   REMARKS
FARMINGTON     FAIR      79  42  26 SE7       30.19F
LOS ALAMOS     FAIR      73  46  37 S5        30.35F
SANTA FE       FAIR      78  52  40 SE9       30.28F
ANGEL FIRE     FAIR      70  47  42 W9        30.42F

$$
NMZ402-403-502-505>509-191800-
WESTCENTRAL MOUNTAINS/SOUTHWEST MOUNTAINS

CITY           SKY/WX    TMP DP  RH WIND       PRES   REMARKS
GALLUP         FAIR      79  32  18 VRB5      30.27F
GRANTS         FAIR      75  30  19 SE7       30.31S
SILVER CITY    FAIR      74  56  53 SE5       30.23F

$$
NMZ407-409-411-412-191800-
SOUTHERN DESERTS

CITY           SKY/WX    TMP DP  RH WIND       PRES   REMARKS
DEMING         FAIR      79  60  52 VRB3      30.16S
LAS CRUCES     FAIR      80  56  44 SE7       30.18F
HOLLOMAN AFB   FAIR      84  57  39 S5        30.17F
ALAMOGORDO     FAIR      81  55  41 CALM      30.17F
T OR C         FAIR      78  55  44 S8        30.19S

$$
NMZ519>523-191800-
CENTRAL VALLEYS/CENTRAL HIGHLANDS

CITY           SKY/WX    TMP DP  RH WIND       PRES   REMARKS
ALBUQUERQUE    PTSUNNY   79  52  38 SW9       30.22S
DOUBLE EAGLE   PTSUNNY   79  46  31 S6        30.25S
MORIARTY ARPT  FAIR      81  52  36 S12       30.29F
CLINES CORNERS FAIR      77  49  37 W13       30.34S
BELEN          FAIR      83  47  28 S10       30.20F
SOCORRO        FAIR      82  54  38 SE12      30.19S

$$
NMZ524>526-539-540-191800-
SOUTHCENTRAL MOUNTAINS

CITY           SKY/WX    TMP DP  RH WIND       PRES   REMARKS
RUIDOSO        FAIR      73  48  40 S6        30.36S

$$
NMZ527>531-191800-
NORTHEAST HIGHLANDS/NORTHEAST PLAINS

CITY           SKY/WX    TMP DP  RH WIND       PRES   REMARKS
LAS VEGAS      FAIR      71  52  50 SW14      30.32S
RATON          FAIR      76  54  46 VRB6      30.25F
CLAYTON        FAIR      81  58  45 SW14      30.17S

$$
NMZ532>537-191800-
EASTCENTRAL PLAINS

CITY           SKY/WX    TMP DP  RH WIND       PRES   REMARKS
SANTA ROSA     FAIR      76  54  46 S5        30.18S
TUCUMCARI      FAIR      88  60  38 SW12      30.12S
CANNON AFB     FAIR      82  63  51 S5        30.18S
CLOVIS AIRPORT FAIR      82  64  54 SW3       30.18S

$$
NMZ028-029-538-191800-
SOUTHEAST PLAINS

CITY           SKY/WX    TMP DP  RH WIND       PRES   REMARKS
ROSWELL        FAIR      82  65  56 CALM      30.12F
ARTESIA        FAIR      82  63  51 VRB5G16   30.12F
CARLSBAD       FAIR      80  66  62 SE6       30.10S
HOBBS          SUNNY     77  64  65 S8        30.14F


$$




USA.gov is the U.S. government's official web portal to all federal, state and local government web resources and services.